Regional Weather Roundup
Issued by NWS

Home | Current Version | Previous Version | Text Only | Print | Product List | Glossary Off
Versions: 1 2 3 4 5 6 7 8 9 10 11 12 13 14 15 16 17 18 19 20 21 22 23 24 25 26 27

000
ASUS45 KCYS 010110
RWRWY

WYOMING REGIONAL WEATHER ROUNDUP
NATIONAL WEATHER SERVICE CHEYENNE WY
700 PM MDT FRI SEP 30 2016

NOTE:  "FAIR" INDICATES FEW OR NO CLOUDS BELOW 12,000 FEET
WITH NO SIGNIFICANT WEATHER AND/OR OBSTRUCTIONS TO VISIBILITY.

WYZ001-010200-
YELLOWSTONE NATIONAL PARK

CITY           SKY/WX    TMP DP  RH WIND       PRES   REMARKS
LK YELLOWSTONE   N/A     47  47 100 CALM      30.31F
W YELLOWSTONE  NOT AVBL

$$
WYZ002>013-054>058-071-098>099-010200-
NORTHERN WYOMING

CITY           SKY/WX    TMP DP  RH WIND       PRES   REMARKS
JACKSON        CLEAR     55  45  67 SW8       30.23F
CODY           FAIR      64  45  48 CALM      30.11S
GREYBULL       FAIR      73  47  39 SW3       30.02S
WORLAND        FAIR      66  47  50 SE3       30.04F
SHERIDAN       FAIR      62  53  72 SW7       30.04S
BUFFALO        MOCLDY    66  48  52 W8        30.11S
GILLETTE       FAIR      59  49  69 NW6       30.05S
HULETT         FAIR      72  46  40 CALM      30.06F
NEWCASTLE      FAIR      68  43  40 E10       30.06S

$$
WYZ014>020-022>026-101>103-010200-
CENTRAL WYOMING

CITY           SKY/WX    TMP DP  RH WIND       PRES   REMARKS
BIG PINEY      CLOUDY    61  37  41 CALM      30.24F
PINEDALE       FAIR      59  36  41 N3        30.26S
DUBOIS         FAIR      59  36  41 W14       30.23R
LANDER         FAIR      65  43  44 SW9       30.11F
RIVERTON       FAIR      66  43  43 E7        30.13R
CASPER         FAIR      62  41  46 W6        30.12S
DOUGLAS        FAIR      62  45  53 S6        30.10F

$$
WYZ021-027>030-104>119-010200-
SOUTHERN WYOMING

CITY           SKY/WX    TMP DP  RH WIND       PRES   REMARKS
EVANSTON       FAIR      61  42  49 N3        30.26S
FORT BRIDGER   CLOUDY    64  41  43 W6        30.28F
ROCK SPRINGS   CLOUDY    62  40  44 SW7       30.23S
DIXON          CLOUDY    61  43  52 E6        30.26F
RAWLINS        FAIR      61  37  41 SW8       30.23F
SARATOGA       MOCLDY    57  41  54 SW10      30.27S
LARAMIE        FAIR      59  40  49 N3        30.25F
CHEYENNE       FAIR      57  48  72 S9        30.21S
TORRINGTON     FAIR      63  48  58 E9        30.08S
PINE BLUFFS    FAIR      61  45  55 SE9       30.16F

$$




USA.gov is the U.S. government's official web portal to all federal, state and local government web resources and services.